VCV302 SVMG-SVMI

Flight info

Callsign VCV302
Flight time 0h 48m
Altitude 24000
Route ESPEP SARNI A561 CBC NETSI1
Aircraft A346/H-SDE2E3FGHIJ3J4J5M1RWXY/LB1D1

Departure

Time 2026-05-07 02:58
Airport Del Caribe Santiago Mariño International Airport (SVMG)

Arrival

Time 2026-05-07 03:46
Airport Maiquetía Simón Bolívar International Airport (SVMI)
Time Latitude Longitude Altitude Speed Heading
2026-05-07 02:17 10.91622 -63.96585 61 ft 0 kts 349°
2026-05-07 02:18 10.91602 -63.96744 60 ft 0 kts 349°
2026-05-07 02:18 10.91594 -63.96742 58 ft 0 kts 349°
2026-05-07 02:25 10.91622 -63.96585 58 ft 1 kts 349°
2026-05-07 02:28 10.91621 -63.96591 64 ft 387 kts 349°
2026-05-07 02:28 10.91593 -63.96745 67 ft 0 kts 349°
2026-05-07 02:28 10.91593 -63.96742 68 ft 0 kts 349°
2026-05-07 02:48 10.91574 -63.96738 68 ft 4 kts 349°
2026-05-07 02:48 10.91553 -63.96733 68 ft 4 kts 328°
2026-05-07 02:49 10.91545 -63.96724 68 ft 4 kts 283°
2026-05-07 02:49 10.91545 -63.96702 58 ft 3 kts 259°
2026-05-07 02:49 10.91549 -63.96680 62 ft 4 kts 258°
2026-05-07 02:49 10.91554 -63.96658 67 ft 0 kts 258°
2026-05-07 02:53 10.91552 -63.96667 63 ft 6 kts 258°
2026-05-07 02:54 10.91532 -63.96761 68 ft 21 kts 257°
2026-05-07 02:54 10.91498 -63.96919 61 ft 12 kts 258°
2026-05-07 02:54 10.91465 -63.97002 61 ft 13 kts 219°
2026-05-07 02:54 10.91385 -63.97013 63 ft 9 kts 208°
2026-05-07 02:55 10.91354 -63.97081 62 ft 13 kts 256°
2026-05-07 02:55 10.91321 -63.97225 62 ft 29 kts 257°
2026-05-07 02:55 10.91275 -63.97454 65 ft 34 kts 258°
2026-05-07 02:55 10.91226 -63.97694 68 ft 35 kts 258°
2026-05-07 02:56 10.91186 -63.97889 66 ft 27 kts 258°
2026-05-07 02:56 10.91146 -63.98080 68 ft 25 kts 258°
2026-05-07 02:56 10.91094 -63.98141 70 ft 0 kts 146°
2026-05-07 02:56 10.91085 -63.98136 63 ft 6 kts 154°
2026-05-07 02:57 10.91020 -63.98098 82 ft 16 kts 130°
2026-05-07 02:57 10.90994 -63.97997 89 ft 12 kts 76°
2026-05-07 02:57 10.91020 -63.97860 84 ft 45 kts 79°
2026-05-07 02:57 10.91131 -63.97306 78 ft 112 kts 78°
2026-05-07 02:58 10.91333 -63.96327 62 ft 168 kts 78°
2026-05-07 02:58 10.91598 -63.95056 385 ft 190 kts 78°
2026-05-07 02:58 10.91866 -63.93751 1111 ft 190 kts 78°
2026-05-07 02:58 10.92136 -63.92421 1964 ft 189 kts 78°
2026-05-07 02:59 10.92293 -63.91067 2415 ft 200 kts 96°
2026-05-07 02:59 10.91760 -63.89711 2700 ft 218 kts 126°
2026-05-07 02:59 10.90496 -63.88766 2981 ft 241 kts 159°
2026-05-07 02:59 10.88789 -63.88700 3303 ft 265 kts 195°
2026-05-07 03:00 10.87216 -63.89741 3835 ft 279 kts 229°
2026-05-07 03:00 10.86060 -63.91343 4667 ft 280 kts 235°
2026-05-07 03:00 10.84993 -63.93013 5477 ft 283 kts 236°
2026-05-07 03:00 10.83936 -63.94708 6292 ft 285 kts 236°
2026-05-07 03:01 10.82873 -63.96425 7107 ft 287 kts 237°
2026-05-07 03:01 10.81804 -63.98157 7894 ft 291 kts 237°
2026-05-07 03:01 10.80724 -63.99911 8654 ft 294 kts 237°
2026-05-07 03:01 10.79632 -64.01689 9408 ft 297 kts 237°
2026-05-07 03:02 10.78525 -64.03492 10139 ft 301 kts 237°
2026-05-07 03:02 10.77413 -64.05295 10707 ft 311 kts 238°
2026-05-07 03:02 10.76545 -64.07411 11035 ft 330 kts 259°
2026-05-07 03:02 10.76324 -64.09758 11391 ft 346 kts 268°
2026-05-07 03:03 10.76266 -64.12269 11716 ft 363 kts 269°
2026-05-07 03:03 10.76206 -64.14899 12028 ft 380 kts 268°
2026-05-07 03:03 10.76111 -64.17657 12354 ft 395 kts 268°
2026-05-07 03:03 10.75985 -64.20482 12921 ft 402 kts 267°
2026-05-07 03:04 10.75840 -64.23340 13655 ft 405 kts 267°
2026-05-07 03:04 10.75684 -64.26214 14381 ft 407 kts 266°
2026-05-07 03:04 10.75522 -64.29113 15078 ft 411 kts 266°
2026-05-07 03:04 10.75356 -64.32030 15745 ft 414 kts 266°
2026-05-07 03:05 10.75186 -64.34967 16406 ft 417 kts 266°
2026-05-07 03:05 10.75015 -64.37932 17057 ft 421 kts 266°
2026-05-07 03:05 10.74841 -64.40914 17699 ft 424 kts 266°
2026-05-07 03:05 10.74665 -64.43920 18329 ft 427 kts 266°
2026-05-07 03:06 10.74490 -64.46914 18938 ft 430 kts 266°
2026-05-07 03:06 10.74313 -64.49950 19551 ft 432 kts 266°
2026-05-07 03:06 10.74136 -64.52981 20449 ft 425 kts 266°
2026-05-07 03:06 10.73961 -64.55958 21431 ft 416 kts 266°
2026-05-07 03:07 10.73790 -64.58864 22401 ft 406 kts 267°
2026-05-07 03:07 10.73701 -64.61670 23210 ft 386 kts 270°
2026-05-07 03:07 10.73781 -64.64385 23757 ft 381 kts 272°
2026-05-07 03:07 10.73912 -64.67076 24003 ft 381 kts 272°
2026-05-07 03:08 10.74047 -64.69780 24008 ft 380 kts 272°
2026-05-07 03:08 10.74179 -64.72465 24013 ft 380 kts 272°
2026-05-07 03:08 10.74308 -64.75151 24015 ft 380 kts 272°
2026-05-07 03:08 10.74436 -64.77844 24022 ft 392 kts 272°
2026-05-07 03:09 10.74569 -64.80671 24022 ft 407 kts 272°
2026-05-07 03:09 10.74707 -64.83596 24018 ft 421 kts 272°
2026-05-07 03:09 10.74850 -64.86637 24017 ft 435 kts 272°
2026-05-07 03:09 10.74995 -64.89740 24012 ft 442 kts 272°
2026-05-07 03:10 10.75141 -64.92865 24009 ft 443 kts 272°
2026-05-07 03:10 10.75287 -64.96006 24008 ft 444 kts 272°
2026-05-07 03:10 10.75433 -64.99143 24007 ft 444 kts 272°
2026-05-07 03:10 10.75578 -65.02283 24007 ft 444 kts 272°
2026-05-07 03:11 10.75723 -65.05411 24007 ft 444 kts 272°
2026-05-07 03:11 10.75868 -65.08564 24005 ft 444 kts 272°
2026-05-07 03:11 10.76012 -65.11699 24000 ft 444 kts 272°
2026-05-07 03:11 10.76153 -65.14771 23999 ft 444 kts 272°
2026-05-07 03:12 10.76297 -65.17911 23998 ft 444 kts 272°
2026-05-07 03:12 10.76440 -65.21051 23998 ft 444 kts 272°
2026-05-07 03:12 10.76583 -65.24200 23997 ft 444 kts 272°
2026-05-07 03:12 10.76725 -65.27327 23998 ft 444 kts 272°
2026-05-07 03:13 10.76867 -65.30461 23997 ft 444 kts 272°
2026-05-07 03:13 10.77010 -65.33603 23997 ft 444 kts 272°
2026-05-07 03:13 10.77151 -65.36744 23998 ft 444 kts 272°
2026-05-07 03:13 10.77293 -65.39885 23997 ft 444 kts 272°
2026-05-07 03:14 10.77434 -65.43033 23995 ft 444 kts 272°
2026-05-07 03:14 10.77574 -65.46169 23991 ft 444 kts 272°
2026-05-07 03:14 10.77856 -65.52468 23989 ft 444 kts 272°
2026-05-07 03:15 10.77995 -65.55610 23989 ft 444 kts 272°
2026-05-07 03:15 10.78135 -65.58746 23988 ft 444 kts 272°
2026-05-07 03:15 10.78274 -65.61889 23988 ft 444 kts 272°
2026-05-07 03:15 10.78414 -65.65036 23988 ft 444 kts 272°
2026-05-07 03:16 10.78552 -65.68174 23989 ft 444 kts 272°
2026-05-07 03:16 10.78691 -65.71318 23988 ft 444 kts 272°
2026-05-07 03:16 10.78829 -65.74466 23988 ft 444 kts 272°
2026-05-07 03:16 10.78966 -65.77615 23989 ft 444 kts 272°
2026-05-07 03:17 10.79104 -65.80759 23983 ft 444 kts 272°
2026-05-07 03:17 10.79240 -65.83906 23980 ft 444 kts 272°
2026-05-07 03:17 10.79377 -65.87045 23979 ft 443 kts 272°
2026-05-07 03:17 10.79513 -65.90186 23979 ft 443 kts 272°
2026-05-07 03:18 10.79646 -65.93281 23980 ft 443 kts 272°
2026-05-07 03:18 10.79782 -65.96422 23979 ft 443 kts 272°
2026-05-07 03:18 10.79875 -65.98584 23979 ft 443 kts 272°
2026-05-07 03:18 10.79993 -66.01329 23979 ft 443 kts 272°
2026-05-07 03:19 10.80127 -66.04475 23979 ft 444 kts 272°
2026-05-07 03:19 10.80261 -66.07611 23980 ft 444 kts 272°
2026-05-07 03:19 10.80395 -66.10751 23980 ft 444 kts 272°
2026-05-07 03:19 10.80529 -66.13893 23978 ft 444 kts 272°
2026-05-07 03:20 10.80663 -66.17033 23701 ft 443 kts 272°
2026-05-07 03:20 10.80795 -66.20155 23364 ft 439 kts 272°
2026-05-07 03:20 10.80926 -66.23255 22995 ft 437 kts 272°
2026-05-07 03:20 10.81056 -66.26341 22582 ft 434 kts 272°
2026-05-07 03:21 10.81184 -66.29403 22154 ft 431 kts 272°
2026-05-07 03:21 10.81312 -66.32444 21725 ft 427 kts 272°
2026-05-07 03:21 10.81432 -66.35457 21286 ft 424 kts 271°
2026-05-07 03:21 10.81399 -66.38448 20852 ft 421 kts 267°
2026-05-07 03:22 10.81153 -66.41369 20419 ft 418 kts 263°
2026-05-07 03:22 10.80710 -66.44280 19991 ft 415 kts 261°
2026-05-07 03:22 10.80212 -66.47173 19560 ft 412 kts 260°
2026-05-07 03:22 10.79713 -66.50022 19138 ft 409 kts 260°
2026-05-07 03:23 10.79215 -66.52866 18700 ft 406 kts 260°
2026-05-07 03:23 10.78726 -66.55672 18306 ft 402 kts 260°
2026-05-07 03:23 10.78235 -66.58498 17894 ft 399 kts 260°
2026-05-07 03:23 10.77755 -66.61266 17478 ft 396 kts 260°
2026-05-07 03:24 10.77277 -66.64023 17062 ft 393 kts 260°
2026-05-07 03:24 10.76803 -66.66760 16652 ft 391 kts 260°
2026-05-07 03:24 10.76333 -66.69474 16234 ft 388 kts 260°
2026-05-07 03:24 10.75861 -66.72196 15832 ft 386 kts 260°
2026-05-07 03:25 10.75396 -66.74881 15449 ft 382 kts 260°
2026-05-07 03:25 10.74943 -66.77488 15132 ft 376 kts 260°
2026-05-07 03:25 10.74490 -66.80092 14836 ft 369 kts 260°
2026-05-07 03:25 10.74046 -66.82648 14381 ft 364 kts 260°
2026-05-07 03:26 10.73609 -66.85161 14012 ft 358 kts 260°
2026-05-07 03:26 10.73188 -66.87659 13575 ft 356 kts 261°
2026-05-07 03:26 10.72894 -66.90154 13155 ft 354 kts 265°
2026-05-07 03:26 10.72760 -66.92656 12732 ft 352 kts 269°
2026-05-07 03:27 10.72749 -66.95154 12352 ft 351 kts 270°
2026-05-07 03:27 10.72756 -66.97633 12131 ft 351 kts 270°
2026-05-07 03:27 10.72765 -67.00128 11420 ft 352 kts 270°
2026-05-07 03:27 10.72773 -67.02617 10691 ft 351 kts 270°
2026-05-07 03:28 10.72779 -67.05067 9969 ft 350 kts 269°
2026-05-07 03:28 10.72783 -67.07536 9205 ft 345 kts 269°
2026-05-07 03:28 10.72787 -67.09959 8472 ft 339 kts 269°
2026-05-07 03:28 10.72788 -67.12351 7743 ft 337 kts 269°
2026-05-07 03:29 10.72789 -67.14727 7010 ft 334 kts 269°
2026-05-07 03:29 10.72790 -67.17118 6355 ft 339 kts 269°
2026-05-07 03:29 10.72791 -67.19547 5601 ft 346 kts 269°
2026-05-07 03:29 10.72791 -67.22010 4868 ft 348 kts 269°
2026-05-07 03:30 10.72702 -67.24421 4232 ft 334 kts 258°
2026-05-07 03:30 10.71774 -67.26468 4007 ft 307 kts 229°
2026-05-07 03:30 10.70265 -67.27844 4061 ft 286 kts 211°
2026-05-07 03:30 10.68492 -67.28640 4019 ft 272 kts 193°
2026-05-07 03:31 10.66626 -67.28853 4013 ft 268 kts 175°
2026-05-07 03:31 10.64856 -67.28523 3992 ft 252 kts 159°
2026-05-07 03:31 10.63330 -67.27746 3962 ft 238 kts 143°
2026-05-07 03:31 10.62100 -67.26606 4000 ft 247 kts 128°
2026-05-07 03:32 10.61179 -67.25096 4017 ft 254 kts 112°
2026-05-07 03:32 10.60604 -67.23396 4020 ft 254 kts 107°
2026-05-07 03:32 10.60268 -67.22254 4016 ft 255 kts 106°
2026-05-07 03:32 10.59745 -67.19934 3996 ft 255 kts 92°
2026-05-07 03:33 10.59755 -67.18130 4020 ft 255 kts 88°
2026-05-07 03:33 10.59823 -67.16325 4003 ft 255 kts 88°
2026-05-07 03:33 10.59869 -67.15127 4014 ft 255 kts 88°
2026-05-07 03:33 10.59931 -67.13354 3905 ft 243 kts 88°
2026-05-07 03:34 10.59982 -67.11667 3488 ft 231 kts 88°
2026-05-07 03:34 10.60025 -67.10081 3107 ft 219 kts 88°
2026-05-07 03:34 10.60064 -67.08557 2612 ft 213 kts 88°
2026-05-07 03:34 10.60102 -67.07064 2068 ft 209 kts 88°
2026-05-07 03:35 10.60155 -67.05592 1539 ft 206 kts 87°
2026-05-07 03:35 10.60174 -67.03729 1129 ft 189 kts 89°
2026-05-07 03:35 10.60181 -67.02847 1077 ft 184 kts 85°
2026-05-07 03:35 10.60648 -67.01632 1686 ft 188 kts 49°
2026-05-07 03:36 10.61769 -67.00956 2186 ft 200 kts 11°
2026-05-07 03:36 10.63215 -67.00952 2728 ft 216 kts 358°
2026-05-07 03:36 10.64754 -67.00927 3240 ft 230 kts
2026-05-07 03:36 10.66353 -67.00689 3893 ft 238 kts 13°
2026-05-07 03:37 10.67965 -67.00283 4570 ft 240 kts 18°
2026-05-07 03:37 10.69577 -66.99801 4923 ft 243 kts 12°
2026-05-07 03:37 10.71262 -66.99871 4998 ft 247 kts 341°
2026-05-07 03:37 10.72704 -67.00816 4995 ft 249 kts 310°
2026-05-07 03:38 10.73474 -67.02379 4999 ft 249 kts 279°
2026-05-07 03:38 10.73605 -67.04136 5022 ft 248 kts 269°
2026-05-07 03:38 10.73530 -67.05854 4990 ft 238 kts 261°
2026-05-07 03:38 10.73259 -67.07485 4809 ft 233 kts 258°
2026-05-07 03:39 10.72933 -67.09110 4486 ft 234 kts 257°
2026-05-07 03:39 10.72595 -67.10730 4198 ft 234 kts 257°
2026-05-07 03:39 10.72254 -67.12348 4008 ft 232 kts 257°
2026-05-07 03:39 10.71910 -67.13957 4021 ft 233 kts 257°
2026-05-07 03:40 10.71565 -67.15571 4001 ft 233 kts 257°
2026-05-07 03:40 10.71223 -67.17169 4016 ft 233 kts 257°
2026-05-07 03:40 10.70871 -67.18781 4012 ft 233 kts 252°
2026-05-07 03:40 10.70055 -67.20162 3974 ft 230 kts 214°
2026-05-07 03:41 10.68578 -67.20677 4010 ft 226 kts 178°
2026-05-07 03:41 10.67007 -67.20593 4041 ft 226 kts 174°
2026-05-07 03:41 10.65432 -67.20493 4020 ft 226 kts 176°
2026-05-07 03:41 10.63862 -67.20437 4010 ft 226 kts 177°
2026-05-07 03:42 10.62293 -67.20415 4016 ft 226 kts 178°
2026-05-07 03:42 10.60746 -67.20226 3962 ft 223 kts 153°
2026-05-07 03:42 10.59676 -67.19216 3786 ft 213 kts 115°
2026-05-07 03:42 10.59478 -67.17743 3426 ft 212 kts 87°
2026-05-07 03:43 10.59618 -67.16252 3108 ft 210 kts 84°
2026-05-07 03:43 10.59764 -67.14779 2828 ft 208 kts 85°
2026-05-07 03:43 10.59868 -67.13323 2549 ft 205 kts 86°
2026-05-07 03:43 10.59940 -67.11879 2275 ft 202 kts 88°
2026-05-07 03:44 10.59991 -67.10478 1993 ft 191 kts 88°
2026-05-07 03:44 10.60032 -67.09171 1732 ft 178 kts 88°
2026-05-07 03:44 10.60068 -67.07953 1479 ft 165 kts 88°
2026-05-07 03:44 10.60101 -67.06808 1290 ft 160 kts 88°
2026-05-07 03:45 10.60143 -67.05672 1094 ft 160 kts 89°
2026-05-07 03:45 10.60140 -67.04544 897 ft 159 kts 90°
2026-05-07 03:45 10.60159 -67.03416 687 ft 159 kts 89°
2026-05-07 03:45 10.60183 -67.02295 487 ft 158 kts 88°
2026-05-07 03:46 10.60217 -67.01177 284 ft 158 kts 88°
2026-05-07 03:46 10.60248 -67.00150 230 ft 121 kts 88°
2026-05-07 03:46 10.60268 -66.99527 210 ft 58 kts 88°
2026-05-07 03:46 10.60274 -66.99285 200 ft 27 kts 86°
2026-05-07 03:47 10.60279 -66.99192 202 ft 0 kts 89°
2026-05-07 03:47 10.60279 -66.99180 209 ft 6 kts 89°
2026-05-07 03:47 10.60266 -66.99121 207 ft 7 kts 157°
2026-05-07 03:47 10.60192 -66.99107 208 ft 12 kts 170°
2026-05-07 03:48 10.60108 -66.99090 197 ft 13 kts 166°
2026-05-07 03:48 10.60037 -66.99114 199 ft 11 kts 241°
2026-05-07 03:48 10.60006 -66.99225 208 ft 23 kts 255°
2026-05-07 03:48 10.59956 -66.99420 213 ft 32 kts 255°
2026-05-07 03:49 10.59910 -66.99610 224 ft 21 kts 256°
2026-05-07 03:49 10.59956 -66.99659 230 ft 12 kts 353°
2026-05-07 03:49 10.60064 -66.99661 229 ft 20 kts 359°
2026-05-07 03:49 10.60139 -66.99770 222 ft 20 kts 268°
2026-05-07 03:50 10.60127 -66.99911 226 ft 20 kts 259°
2026-05-07 03:50 10.60117 -67.00059 230 ft 22 kts 268°
2026-05-07 03:50 10.60114 -67.00217 234 ft 20 kts 268°
2026-05-07 03:50 10.60060 -67.00293 235 ft 15 kts 186°
2026-05-07 03:51 10.59975 -67.00338 237 ft 14 kts 199°
2026-05-07 03:51 10.59892 -67.00338 235 ft 8 kts 177°
2026-05-07 03:51 10.59854 -67.00337 236 ft 3 kts 178°
2026-05-07 03:51 10.59842 -67.00336 234 ft 2 kts 178°
2026-05-07 03:52 10.59840 -67.00336 234 ft 0 kts 178°
2026-05-07 03:52 10.59841 -67.00336 236 ft 0 kts 178°